Location: Daytona Beach
(29.2106°N, 81.0231°W)
Time: 13:47:08
(UTC-04:00)

X-37B - Pass Details

Date: 22 June 2021
Orbit: 383 x 392 km, 45.0° (Epoch: 01 July)

Event Time Altitude Azimuth Distance (km) Brightness Sun altitude
Rises 05:27:23 0° 306° (NW) 2,257 4.3 -11.7°
Reaches altitude 10° 05:29:27 10° 304° (NW) 1,403 3.2 -11.3°
Maximum altitude 05:32:35 74° 219° (SW) 402 0.4 -10.8°
Drops below altitude 10° 05:35:44 10° 134° (SE) 1,401 3.6 -10.2°
Sets 05:37:48 0° 132° (SE) 2,254 4.6 -9.8°
